EW9596 Weather Reports


Display with metric or nautical units.
time (UTC)temp
F
wind
direction
speed
MPH
gust
MPH
rain 1hr
in
rain 24hr
in
rain mn
in
humidity
%
barometer
mb
20260510160042 57 20 0.0 4.0 0.00 0.04 0.02 72 1015.1
20260510155541 57 342 0.0 4.0 0.00 0.04 0.02 72 1015.1
20260510155041 57 25 1.0 7.0 0.00 0.04 0.02 71 1015.1
20260510154544 57 19 3.0 7.0 0.00 0.04 0.02 72 1015.1
20260510154041 57 335 0.0 6.0 0.00 0.04 0.02 73 1015.1
20260510153539 57 269 3.0 6.0 0.00 0.04 0.02 74 1015.1
20260510153038 57 327 2.0 5.0 0.00 0.04 0.02 75 1015.1
20260510152540 57 81 1.0 6.0 0.00 0.04 0.02 75 1014.9
20260510152037 57 19 0.0 5.0 0.00 0.04 0.02 77 1014.9
20260510151534 56 284 0.0 6.0 0.00 0.04 0.02 78 1014.9
20260510151033 56 325 1.0 6.0 0.00 0.04 0.02 78 1014.8
20260510150532 56 303 2.0 6.0 0.00 0.04 0.02 80 1014.7
20260510150031 55 17 1.0 4.0 0.00 0.04 0.02 82 1014.7
20260510145530 55 19 0.0 8.0 0.00 0.06 0.02 82 1014.8
20260510145028 55 20 1.0 4.0 0.00 0.06 0.02 83 1014.7
20260510144533 54 13 0.0 4.0 0.00 0.06 0.02 86 1014.6
20260510144025 54 69 2.0 4.0 0.00 0.06 0.02 87 1014.5
20260510143524 53 65 1.0 4.0 0.00 0.06 0.02 87 1014.6
20260510143024 53 316 0.0 4.0 0.00 0.06 0.02 88 1014.5
20260510142522 53 360 1.0 3.0 0.00 0.06 0.02 89 1014.5
20260510142023 52 37 0.0 2.0 0.00 0.06 0.02 89 1014.4
20260510141521 52 76 0.0 3.0 0.00 0.06 0.02 90 1014.5
20260510141023 52 36 0.0 3.0 0.00 0.06 0.02 90 1014.4
20260510140524 52 12 0.0 2.0 0.00 0.06 0.02 90 1014.3
20260510140019 52 11 0.0 0.0 0.00 0.06 0.02 90 1014.2
20260510135522 52 11 0.0 0.0 0.00 0.07 0.02 91 1014.2
20260510135020 52 11 0.0 8.0 0.00 0.07 0.02 91 1014.1
20260510134517 52 10 1.0 8.0 0.00 0.07 0.02 91 1014.0
20260510134016 52 28 0.0 4.0 0.00 0.07 0.02 91 1013.8
20260510133519 53 355 2.0 4.0 0.00 0.07 0.02 91 1013.7
20260510133015 53 41 1.0 5.0 0.00 0.07 0.02 91 1013.7
20260510132514 53 286 2.0 8.0 0.00 0.07 0.02 91 1013.7
20260510132015 53 252 2.0 8.0 0.00 0.07 0.02 91 1013.6
20260510131511 53 287 0.0 3.0 0.00 0.07 0.02 91 1013.5
20260510131015 53 284 0.0 0.0 0.00 0.07 0.02 91 1013.5
20260510130511 53 284 0.0 0.0 0.00 0.07 0.02 91 1013.4
20260510130011 53 285 0.0 0.0 0.00 0.07 0.02 91 1013.4
20260510125511 52 183 0.0 0.0 0.00 0.13 0.02 91 1013.5
20260510125010 52 183 0.0 0.0 0.00 0.13 0.02 91 1013.4
20260510124509 52 183 0.0 0.0 0.00 0.13 0.02 91 1013.4
20260510124008 52 182 0.0 0.0 0.00 0.13 0.02 91 1013.2
20260510123509 52 182 0.0 0.0 0.00 0.13 0.02 91 1013.3
20260510123008 52 183 0.0 0.0 0.00 0.13 0.02 91 1013.0
20260510122506 52 183 0.0 0.0 0.00 0.13 0.02 91 1013.0
20260510122006 51 182 0.0 0.0 0.00 0.13 0.02 91 1012.9
20260510121505 51 183 0.0 0.0 0.00 0.13 0.02 91 1012.8
20260510121005 51 183 0.0 0.0 0.00 0.13 0.02 91 1012.8
20260510120506 51 183 0.0 0.0 0.00 0.13 0.02 91 1012.7
20260510120003 51 183 0.0 0.0 0.00 0.13 0.02 91 1012.7
20260510115503 51 183 0.0 0.0 0.00 0.17 0.02 91 1012.6
20260510115002 51 183 0.0 0.0 0.00 0.17 0.02 91 1012.6
20260510114502 50 182 0.0 0.0 0.00 0.17 0.02 91 1012.5
20260510114000 50 182 0.0 0.0 0.00 0.17 0.02 91 1012.4
20260510113500 50 182 0.0 0.0 0.00 0.17 0.02 91 1012.4
20260510113103 50 182 0.0 0.0 0.00 0.17 0.02 90 1012.3
20260510112600 50 182 0.0 0.0 0.00 0.17 0.02 90 1012.3
20260510112059 50 182 0.0 0.0 0.00 0.17 0.02 90 1012.2
20260510111606 50 182 0.0 0.0 0.00 0.17 0.02 90 1012.1
20260510111057 50 182 0.0 0.0 0.00 0.17 0.02 90 1012.0
20260510110556 49 182 0.0 0.0 0.00 0.17 0.02 90 1011.9
20260510110100 49 182 0.0 0.0 0.00 0.17 0.02 90 1011.8
20260510105556 49 182 0.0 0.0 0.00 0.23 0.02 90 1011.7
20260510105057 49 182 0.0 0.0 0.00 0.23 0.02 90 1011.6
20260510104606 49 182 0.0 0.0 0.00 0.23 0.02 90 1011.5
20260510104054 49 182 0.0 0.0 0.00 0.23 0.02 90 1011.4
20260510103555 49 182 0.0 0.0 0.00 0.23 0.02 90 1011.2
20260510103055 49 182 0.0 0.0 0.00 0.23 0.02 90 1011.2
20260510102556 49 182 0.0 0.0 0.00 0.23 0.02 90 1011.2
20260510102054 49 182 0.0 0.0 0.00 0.23 0.02 90 1011.2
20260510101602 49 182 0.0 0.0 0.00 0.23 0.02 90 1011.1
20260510101054 49 182 0.0 0.0 0.00 0.23 0.02 90 1010.9
20260510100553 49 182 0.0 0.0 0.00 0.23 0.02 90 1011.0
20260510095553 49 182 0.0 0.0 0.00 0.23 0.02 90 1010.8
20260510095053 49 182 0.0 0.0 0.00 0.23 0.02 90 1010.9
20260510094603 49 182 0.0 0.0 0.00 0.23 0.02 90 1010.8
20260510094052 49 182 0.0 0.0 0.00 0.23 0.02 90 1010.8
20260510093552 49 181 0.0 0.0 0.00 0.23 0.02 90 1010.6
20260510093053 49 181 0.0 0.0 0.00 0.23 0.02 90 1010.6
20260510092553 49 181 0.0 0.0 0.00 0.23 0.02 90 1010.5
20260510092054 49 181 0.0 0.0 0.00 0.23 0.02 90 1010.6
20260510091552 49 181 0.0 0.0 0.00 0.23 0.02 90 1010.6
20260510091151 49 181 0.0 0.0 0.00 0.23 0.02 90 1010.6
20260510090552 49 181 0.0 0.0 0.00 0.23 0.02 90 1010.5
20260510090052 49 181 0.0 0.0 0.00 0.23 0.02 89 1010.4
20260510085553 49 181 0.0 0.0 0.00 0.23 0.02 89 1010.2
20260510085050 49 181 0.0 0.0 0.00 0.23 0.02 89 1010.1
20260510084550 49 181 0.0 0.0 0.00 0.23 0.02 89 1010.1
20260510084050 49 181 0.0 0.0 0.00 0.23 0.02 89 1010.1
20260510083550 49 181 0.0 0.0 0.00 0.23 0.02 89 1010.1
20260510083050 49 181 0.0 0.0 0.00 0.23 0.02 89 1010.3
20260510082549 49 181 0.0 0.0 0.00 0.23 0.02 89 1010.1
20260510082048 49 181 0.0 0.0 0.00 0.23 0.02 89 1010.1
20260510081548 49 181 0.0 0.0 0.00 0.23 0.02 89 1010.1
20260510081047 49 181 0.0 0.0 0.00 0.23 0.02 89 1010.1
20260510080548 49 181 0.0 0.0 0.00 0.23 0.02 89 1010.0
20260510080051 50 181 0.0 0.0 0.00 0.23 0.02 89 1009.9
20260510075546 50 181 0.0 0.0 0.00 0.23 0.02 89 1010.0
20260510075046 50 181 0.0 0.0 0.00 0.23 0.02 89 1009.8
20260510074549 50 181 0.0 0.0 0.00 0.23 0.02 89 1009.9
20260510074045 50 181 0.0 0.0 0.00 0.23 0.02 89 1009.8
20260510073545 50 255 0.0 0.0 0.00 0.23 0.02 89 1009.8
20260510073048 50 255 0.0 0.0 0.00 0.23 0.02 89 1009.8
20260510072545 50 255 0.0 0.0 0.00 0.23 0.02 89 1009.7
20260510072047 50 255 0.0 0.0 0.00 0.23 0.02 89 1009.6
20260510071543 51 255 0.0 0.0 0.00 0.23 0.02 89 1009.5
20260510071044 51 255 0.0 0.0 0.00 0.23 0.02 89 1009.5
20260510070541 51 275 0.0 0.0 0.00 0.23 0.02 89 1009.6
20260510070055 51 275 0.0 0.0 0.00 0.23 0.02 89 1009.7
20260510065540 51 276 0.0 0.0 0.00 0.24 0.02 89 1009.8
20260510065041 51 276 0.0 0.0 0.00 0.24 0.02 89 1009.6
20260510064548 51 276 0.0 0.0 0.00 0.24 0.02 89 1009.6
20260510064039 51 276 0.0 0.0 0.00 0.24 0.02 89 1009.7
20260510063539 52 276 0.0 0.0 0.00 0.24 0.02 90 1009.8
20260510063043 52 275 0.0 2.0 0.00 0.24 0.02 90 1009.8
20260510062539 52 275 0.0 4.0 0.00 0.24 0.02 90 1009.8
20260510062039 52 282 2.0 4.0 0.00 0.24 0.02 90 1009.7
20260510061539 52 308 1.0 3.0 0.00 0.24 0.02 89 1009.5
20260510061037 52 132 0.0 2.0 0.00 0.24 0.02 89 1009.7
20260510060537 52 176 0.0 7.0 0.00 0.24 0.02 89 1010.2
20260510060040 52 244 0.0 7.0 0.00 0.24 0.02 89 1010.6
20260510055535 52 248 0.0 4.0 0.00 0.24 0.02 89 1010.2
20260510055034 52 271 0.0 5.0 0.00 0.24 0.02 89 1010.2
20260510054535 52 264 2.0 7.0 0.00 0.24 0.02 89 1010.5
20260510054034 52 151 0.0 10.0 0.01 0.24 0.02 89 1010.3
20260510053534 52 128 3.0 10.0 0.01 0.24 0.02 89 1010.2
20260510053032 52 214 1.0 11.0 0.01 0.24 0.02 89 1010.3
20260510052533 52 120 2.0 7.0 0.02 0.24 0.02 89 1010.6
20260510052030 52 257 0.0 5.0 0.02 0.24 0.02 89 1010.8
20260510051531 52 220 0.0 5.0 0.02 0.24 0.02 89 1011.0
20260510051027 52 195 2.0 4.0 0.02 0.24 0.02 89 1011.0
20260510050527 52 247 0.0 3.0 0.02 0.24 0.02 89 1011.1
20260510050027 52 180 0.0 0.0 0.02 0.24 0.02 89 1011.2
20260510045531 52 172 0.0 0.0 0.02 0.24 0.02 89 1011.3
20260510045027 52 215 0.0 0.0 0.02 0.24 0.02 89 1011.4
20260510044527 52 215 0.0 0.0 0.02 0.24 0.02 89 1011.7
20260510044026 52 215 0.0 0.0 0.01 0.23 0.01 89 1011.6
20260510043526 52 215 0.0 0.0 0.01 0.23 0.01 89 1011.5
20260510043026 52 215 0.0 2.0 0.01 0.23 0.01 89 1011.5
20260510042529 52 216 0.0 5.0 0.00 0.22 0.00 89 1011.4
20260510042024 52 225 2.0 5.0 0.00 0.22 0.00 89 1011.7
20260510041523 52 238 0.0 4.0 0.00 0.22 0.00 89 1011.7
20260510041022 52 225 0.0 4.0 0.00 0.22 0.00 89 1011.3
20260510040520 52 225 0.0 6.0 0.00 0.22 0.00 89 1011.3
20260510040023 51 217 1.0 8.0 0.00 0.22 0.00 89 1011.1
20260510035519 51 248 3.0 9.0 0.00 0.22 0.22 88 1011.1
20260510035018 51 221 1.0 4.0 0.00 0.22 0.22 88 1011.1
20260510034519 51 244 0.0 0.0 0.00 0.22 0.22 88 1010.8
20260510034019 51 244 0.0 0.0 0.00 0.22 0.22 87 1010.4
20260510033519 51 246 0.0 0.0 0.00 0.22 0.22 87 1009.9
20260510033018 51 243 0.0 0.0 0.00 0.22 0.22 87 1009.9
20260510032518 51 243 0.0 0.0 0.00 0.22 0.22 87 1010.0
20260510032018 51 243 0.0 0.0 0.00 0.22 0.22 87 1009.9
20260510031526 51 243 0.0 0.0 0.00 0.22 0.22 87 1009.8
20260510031018 51 243 0.0 0.0 0.00 0.22 0.22 87 1010.0
20260510030517 51 243 0.0 0.0 0.00 0.22 0.22 86 1010.0
20260510030017 51 243 0.0 0.0 0.00 0.22 0.22 86 1010.1
20260510025517 51 243 0.0 0.0 0.00 0.22 0.22 86 1009.9
20260510025018 51 243 0.0 0.0 0.00 0.22 0.22 86 1009.8
20260510024518 51 243 0.0 0.0 0.00 0.22 0.22 85 1009.7
20260510024016 51 243 0.0 0.0 0.00 0.22 0.22 85 1009.5
20260510023517 51 243 0.0 0.0 0.00 0.22 0.22 85 1009.3
20260510023017 51 243 0.0 0.0 0.00 0.22 0.22 85 1009.2
20260510022521 51 243 0.0 0.0 0.00 0.22 0.22 85 1009.3
20260510022016 52 243 0.0 0.0 0.00 0.22 0.22 84 1009.1
20260510021525 52 243 0.0 0.0 0.00 0.22 0.22 84 1009.2
20260510021016 52 243 0.0 0.0 0.00 0.22 0.22 84 1009.3
20260510020515 52 243 0.0 0.0 0.00 0.22 0.22 84 1009.2
20260510020015 52 243 0.0 0.0 0.00 0.22 0.22 84 1009.3
20260510015516 53 243 0.0 0.0 0.00 0.22 0.22 84 1009.2
20260510015015 53 243 0.0 0.0 0.00 0.22 0.22 84 1009.2
20260510014516 53 243 0.0 0.0 0.00 0.22 0.22 84 1009.2
20260510014016 54 243 0.0 0.0 0.00 0.22 0.22 84 1009.1
20260510013519 54 243 0.0 0.0 0.00 0.22 0.22 84 1009.0
20260510013014 54 243 0.0 0.0 0.00 0.22 0.22 84 1008.9
20260510012514 54 243 0.0 0.0 0.00 0.22 0.22 84 1008.9
20260510012015 54 264 0.0 0.0 0.00 0.22 0.22 84 1009.0
20260510011514 54 264 0.0 0.0 0.00 0.22 0.22 84 1009.1
20260510011013 54 264 0.0 5.0 0.00 0.22 0.22 84 1008.8
20260510010513 54 200 2.0 5.0 0.00 0.22 0.22 84 1008.8
20260510010013 55 166 0.0 6.0 0.00 0.22 0.22 84 1008.7
20260510005512 55 137 1.0 6.0 0.00 0.22 0.22 84 1008.6
20260510005013 55 193 1.0 6.0 0.00 0.22 0.22 83 1008.6
20260510004513 55 194 2.0 6.0 0.00 0.22 0.22 83 1008.6
20260510004016 55 132 0.0 5.0 0.00 0.22 0.22 83 1008.5
20260510003512 55 170 1.0 8.0 0.00 0.22 0.22 82 1008.4
20260510003012 56 187 0.0 8.0 0.00 0.22 0.22 82 1008.3
20260510002511 56 171 0.0 0.0 0.00 0.22 0.22 82 1008.2
20260510002012 56 268 0.0 0.0 0.00 0.22 0.22 82 1008.2
20260510001520 57 140 0.0 0.0 0.00 0.22 0.22 81 1008.3
20260510001011 57 183 0.0 0.0 0.00 0.22 0.22 81 1008.3
20260510000512 57 198 0.0 0.0 0.00 0.22 0.22 81 1008.3
20260510000011 57 198 0.0 0.0 0.00 0.22 0.22 81 1008.3
20260509235510 58 244 0.0 0.0 0.00 0.22 0.22 82 1008.2
20260509235013 58 270 0.0 0.0 0.00 0.22 0.22 82 1008.2
20260509234513 58 11 0.0 0.0 0.00 0.22 0.22 82 1008.0
20260509234011 58 10 0.0 0.0 0.00 0.22 0.22 82 1008.0
20260509233511 58 294 0.0 0.0 0.00 0.22 0.22 82 1008.0
20260509233010 58 294 0.0 0.0 0.00 0.22 0.22 82 1008.0
20260509232512 58 294 0.0 0.0 0.00 0.22 0.22 83 1007.8
20260509232010 58 244 0.0 0.0 0.00 0.22 0.22 83 1007.8
20260509231510 58 164 0.0 0.0 0.00 0.22 0.22 83 1007.6
20260509231008 58 166 0.0 0.0 0.00 0.22 0.22 83 1007.6
20260509230507 58 310 0.0 0.0 0.00 0.22 0.22 83 1007.7
20260509230007 58 67 0.0 0.0 0.00 0.22 0.22 83 1007.7
20260509225507 57 254 0.0 2.0 0.00 0.22 0.22 83 1007.7
20260509225006 57 149 0.0 3.0 0.00 0.22 0.22 83 1007.7
20260509224506 57 137 0.0 4.0 0.00 0.22 0.22 83 1007.8
20260509224006 57 184 0.0 6.0 0.00 0.22 0.22 83 1008.0
20260509223506 57 221 0.0 6.0 0.00 0.22 0.22 83 1008.1
20260509223006 57 224 0.0 9.0 0.00 0.22 0.22 83 1008.1
20260509222505 57 224 1.0 9.0 0.00 0.22 0.22 83 1008.0
20260509222005 57 239 1.0 8.0 0.00 0.22 0.22 84 1008.0
20260509221505 57 198 2.0 9.0 0.00 0.22 0.22 84 1008.0
20260509221105 57 124 1.0 9.0 0.00 0.22 0.22 84 1007.9
20260509220504 57 214 2.0 10.0 0.00 0.22 0.22 84 1007.9
20260509220005 57 169 1.0 10.0 0.00 0.22 0.22 85 1008.0
20260509215504 58 225 1.0 5.0 0.00 0.22 0.22 85 1007.9
20260509215003 57 225 1.0 5.0 0.00 0.22 0.22 86 1008.0
20260509214503 57 223 2.0 5.0 0.00 0.22 0.22 86 1008.0
20260509214003 57 290 0.0 6.0 0.00 0.22 0.22 87 1008.0
20260509213502 57 255 2.0 5.0 0.00 0.22 0.22 87 1008.0
20260509213002 57 309 0.0 8.0 0.00 0.22 0.22 88 1008.0
20260509212501 57 69 1.0 8.0 0.00 0.22 0.22 88 1008.1
20260509212100 57 155 0.0 4.0 0.00 0.22 0.22 89 1008.1
20260509211605 57 275 1.0 5.0 0.00 0.22 0.22 89 1008.2
20260509211057 57 88 2.0 9.0 0.00 0.22 0.22 89 1008.2
20260509210557 56 273 2.0 9.0 0.00 0.22 0.22 89 1008.3
20260509210101 56 229 1.0 6.0 0.00 0.22 0.22 89 1008.4
20260509205554 56 286 0.0 2.0 0.00 0.22 0.22 89 1008.4
20260509205053 56 260 0.0 10.0 0.00 0.22 0.22 89 1008.5
20260509204600 55 252 4.0 10.0 0.00 0.22 0.22 89 1008.6
20260509204053 55 288 1.0 4.0 0.00 0.22 0.22 89 1008.6
20260509203553 55 124 1.0 5.0 0.00 0.22 0.22 89 1008.6
20260509203051 55 128 1.0 6.0 0.00 0.22 0.22 89 1008.8
20260509202555 55 284 2.0 6.0 0.00 0.22 0.22 89 1008.7
20260509202051 55 286 0.0 5.0 0.00 0.22 0.22 89 1008.8
20260509201550 55 262 1.0 5.0 0.00 0.22 0.22 89 1008.8
20260509201049 55 273 0.0 3.0 0.00 0.22 0.22 89 1008.8
20260509200549 55 313 0.0 4.0 0.00 0.22 0.22 89 1008.8
20260509200048 55 325 2.0 4.0 0.00 0.22 0.22 89 1008.9
20260509195548 54 311 0.0 3.0 0.00 0.22 0.22 89 1009.0
20260509195051 54 277 1.0 5.0 0.00 0.22 0.22 89 1009.0
20260509194546 54 257 1.0 5.0 0.00 0.22 0.22 89 1009.1
20260509194047 54 292 0.0 4.0 0.00 0.22 0.22 89 1009.2
20260509193545 54 293 0.0 3.0 0.01 0.22 0.22 89 1009.2
20260509193046 54 273 0.0 5.0 0.02 0.22 0.22 89 1009.2
20260509192548 54 273 1.0 5.0 0.02 0.22 0.22 89 1009.2
20260509192044 54 249 0.0 0.0 0.02 0.22 0.22 89 1009.3
20260509191551 54 268 0.0 0.0 0.02 0.22 0.22 89 1009.4
20260509191048 54 268 0.0 0.0 0.02 0.22 0.22 89 1009.4
20260509190542 54 268 0.0 0.0 0.02 0.22 0.22 89 1009.5
20260509190044 54 268 0.0 0.0 0.02 0.22 0.22 89 1009.5
20260509185543 54 267 0.0 0.0 0.02 0.22 0.22 89 1009.5
20260509185045 54 267 0.0 4.0 0.02 0.22 0.22 89 1009.5
20260509184543 54 292 0.0 4.0 0.02 0.22 0.22 89 1009.5
20260509184042 54 239 0.0 3.0 0.02 0.22 0.22 89 1009.5
20260509183543 54 290 0.0 4.0 0.01 0.21 0.21 89 1009.5
20260509183043 54 291 1.0 4.0 0.00 0.20 0.20 89 1009.4
20260509182542 54 306 0.0 3.0 0.00 0.20 0.20 89 1009.5
20260509182042 54 304 0.0 3.0 0.00 0.20 0.20 89 1009.5
20260509181543 54 322 0.0 3.0 0.00 0.20 0.20 89 1009.4
20260509181041 54 37 0.0 3.0 0.00 0.20 0.20 89 1009.4
20260509180543 54 277 0.0 3.0 0.00 0.20 0.20 89 1009.4
20260509180040 54 281 0.0 4.0 0.00 0.20 0.20 89 1009.4
20260509175540 54 286 0.0 6.0 0.00 0.20 0.20 89 1009.4
20260509175044 54 244 1.0 6.0 0.00 0.20 0.20 89 1009.4
20260509174551 54 223 2.0 6.0 0.00 0.20 0.20 89 1009.3
20260509174039 54 246 0.0 8.0 0.00 0.20 0.20 90 1009.3
20260509173540 54 150 2.0 8.0 0.00 0.20 0.20 90 1009.4
20260509173044 54 308 0.0 5.0 0.00 0.20 0.20 90 1009.4
20260509172541 53 188 1.0 6.0 0.00 0.20 0.20 90 1009.3
20260509172038 53 281 1.0 6.0 0.00 0.20 0.20 90 1009.3
20260509171544 53 158 2.0 9.0 0.00 0.20 0.20 90 1009.4
20260509171036 53 113 3.0 7.0 0.00 0.20 0.20 90 1009.3
20260509170536 53 236 0.0 5.0 0.00 0.20 0.20 90 1009.3
20260509170040 53 136 2.0 5.0 0.00 0.20 0.20 90 1009.4
20260509165535 53 206 0.0 0.0 0.00 0.20 0.20 90 1009.4
20260509165035 53 209 0.0 0.0 0.00 0.20 0.20 90 1009.4
20260509164536 53 207 0.0 2.0 0.00 0.20 0.20 90 1009.5
20260509164034 53 192 0.0 4.0 0.00 0.20 0.20 90 1009.5
20260509163534 53 287 0.0 4.0 0.00 0.20 0.20 90 1009.6
20260509163034 53 263 2.0 4.0 0.00 0.20 0.20 91 1009.6
20260509162533 53 126 1.0 4.0 0.00 0.20 0.20 91 1009.6
20260509162036 53 346 0.0 3.0 0.00 0.20 0.20 91 1009.7
20260509161533 53 254 0.0 0.0 0.00 0.20 0.20 91 1009.7
20260509161033 53 241 0.0 0.0 0.00 0.20 0.20 91 1009.8